EC1DIR-13 Weather Reports


Display with metric or nautical units.
time (UTC)temp
F
wind
direction
speed
MPH
gust
MPH
rain 1hr
in
rain 24hr
in
rain mn
in
humidity
%
barometer
mb
20260507064600 54 87 0.0 1.0 0.00 0.00 0.00 47 1012.2
20260507063101 54 83 0.0 3.0 0.00 0.00 0.00 46 1012.2
20260507061554 54 89 0.0 0.0 0.00 0.00 0.00 47 1012.2
20260507060052 54 84 0.0 0.0 0.00 0.00 0.00 47 1012.1
20260507054554 54 42 0.0 0.0 0.00 0.00 0.00 47 1012.0
20260507053048 54 50 0.0 0.0 0.00 0.00 0.00 46 1011.9
20260507051548 54 76 0.0 0.0 0.00 0.00 0.00 46 1011.8
20260507050046 54 87 0.0 3.0 0.00 0.00 0.00 45 1011.8
20260507044548 54 67 0.0 1.0 0.00 0.00 0.00 45 1011.8
20260507043046 54 70 0.0 1.0 0.00 0.00 0.00 45 1011.9
20260507041545 54 70 0.0 1.0 0.00 0.00 0.00 44 1011.8
20260507040048 54 93 0.0 0.0 0.00 0.00 0.00 43 1011.9
20260507034546 54 83 0.0 1.0 0.00 0.00 0.00 43 1012.0
20260507033041 54 45 0.0 0.0 0.00 0.00 0.00 42 1012.0
20260507031542 54 64 0.0 0.0 0.00 0.00 0.00 42 1012.1
20260507030042 53 90 0.0 0.0 0.00 0.00 0.00 42 1012.2
20260507024539 53 40 0.0 0.0 0.00 0.00 0.00 42 1012.2
20260507023038 53 31 0.0 0.0 0.00 0.00 0.00 42 1012.2
20260507021539 53 50 0.0 1.0 0.00 0.00 0.00 41 1012.2
20260507020037 53 60 0.0 0.0 0.00 0.00 0.00 40 1012.2
20260507014541 54 39 0.0 12.0 0.00 0.00 0.00 38 1012.2
20260507013036 54 83 0.0 6.0 0.00 0.00 0.00 38 1012.1
20260507011534 54 29 1.0 13.0 0.00 0.00 0.00 35 1012.1
20260507010032 55 74 0.0 14.0 0.00 0.00 0.00 32 1012.3
20260507004531 55 38 0.0 4.0 0.00 0.00 0.00 30 1012.1
20260507003029 54 93 0.0 11.0 0.00 0.00 0.00 31 1012.2
20260507001526 52 31 0.0 2.0 0.00 0.00 0.00 36 1012.3
20260507000028 52 40 0.0 0.0 0.00 0.00 0.00 37 1012.3
20260506234525 52 35 0.0 3.0 0.00 0.00 0.00 37 1012.3
20260506233025 52 42 0.0 0.0 0.00 0.00 0.00 35 1012.2
20260506231523 52 12 0.0 0.0 0.00 0.00 0.00 34 1012.2
20260506230022 51 18 0.0 3.0 0.00 0.00 0.00 36 1012.1
20260506224520 51 18 0.0 2.0 0.00 0.00 0.00 37 1012.1
20260506223018 51 12 0.0 2.0 0.00 0.00 0.00 37 1012.1
20260506221516 52 14 0.0 3.0 0.00 0.00 0.00 35 1012.1
20260506220016 53 15 0.0 0.0 0.00 0.00 0.00 35 1012.1
20260506214510 53 14 0.0 0.0 0.00 0.00 0.00 33 1012.2
20260506213013 54 18 0.0 0.0 0.00 0.00 0.00 33 1012.2
20260506211502 54 18 0.0 0.0 0.00 0.00 0.00 32 1012.3
20260506210057 55 18 0.0 0.0 0.00 0.00 0.00 31 1012.3
20260506204553 55 14 0.0 0.0 0.00 0.00 0.00 29 1012.3
20260506203052 55 4 0.0 0.0 0.00 0.00 0.00 28 1012.2
20260506201604 56 66 0.0 0.0 0.00 0.00 0.00 28 1012.2
20260506200039 57 73 0.0 0.0 0.00 0.00 0.00 27 1012.1
20260506194540 58 91 0.0 0.0 0.00 0.00 0.00 26 1012.1
20260506193035 59 91 0.0 0.0 0.00 0.00 0.00 23 1011.9
20260506191527 61 91 0.0 0.0 0.00 0.00 0.00 19 1011.9
20260506190023 61 91 0.0 2.0 0.00 0.00 0.00 15 1011.8
20260506184518 63 97 0.0 0.0 0.00 0.00 0.00 12 1011.7
20260506183014 64 108 0.0 4.0 0.00 0.00 0.00 8 1011.7
20260506181510 65 114 0.0 1.0 0.00 0.00 0.00 8 1011.7
20260506180006 65 146 0.0 4.0 0.00 0.00 0.00 7 1011.6
20260506174501 65 152 0.0 0.0 0.00 0.00 0.00 10 1011.7
20260506173118 66 121 0.0 4.0 0.00 0.00 0.00 8 1011.7
20260506171557 67 178 0.0 0.0 0.00 0.00 0.00 7 1011.7
20260506170050 66 89 0.0 2.0 0.00 0.00 0.00 8 1011.8
20260506164544 68 160 0.0 3.0 0.00 0.00 0.00 5 1011.7
20260506163058 66 78 0.0 3.0 0.00 0.00 0.00 9 1011.8
20260506161543 65 148 0.0 4.0 0.00 0.00 0.00 9 1011.8
20260506160042 65 170 1.0 5.0 0.00 0.00 0.00 9 1011.9
20260506154543 63 106 0.0 0.0 0.00 0.00 0.00 12 1012.0
20260506153041 64 187 0.0 0.0 0.00 0.00 0.00 13 1012.0
20260506151535 64 189 0.0 4.0 0.00 0.00 0.00 11 1012.3
20260506150033 67 184 0.0 9.0 0.00 0.00 0.00 9 1012.4
20260506144530 66 359 0.0 9.0 0.00 0.00 0.00 10 1012.5
20260506143028 67 359 0.0 4.0 0.00 0.00 0.00 11 1012.8
20260506141526 64 247 0.0 3.0 0.00 0.00 0.00 13 1013.0
20260506140024 63 172 0.0 3.0 0.00 0.00 0.00 14 1013.1
20260506134523 64 201 0.0 1.0 0.00 0.00 0.00 13 1013.2
20260506133023 64 122 0.0 3.0 0.00 0.00 0.00 14 1013.3
20260506131520 65 83 0.0 3.0 0.00 0.00 0.00 14 1013.4
20260506130018 65 249 0.0 3.0 0.00 0.00 0.00 15 1013.6
20260506124516 63 106 0.0 2.0 0.00 0.00 0.00 15 1013.8
20260506123014 63 181 0.0 8.0 0.00 0.00 0.00 19 1014.0
20260506121511 62 93 0.0 4.0 0.00 0.00 0.00 20 1014.1
20260506120010 62 81 0.0 3.0 0.00 0.00 0.00 19 1014.2
20260506114508 60 189 0.0 1.0 0.00 0.00 0.00 21 1014.3
20260506113010 60 87 0.0 0.0 0.00 0.00 0.00 23 1014.4
20260506111506 59 183 0.0 2.0 0.00 0.00 0.00 24 1014.4
20260506110006 60 183 0.0 6.0 0.00 0.00 0.00 23 1014.5
20260506104504 60 228 0.0 3.0 0.00 0.00 0.00 23 1014.5
20260506103003 61 170 0.0 3.0 0.00 0.00 0.00 24 1014.7
20260506101600 60 177 0.0 1.0 0.00 0.00 0.00 23 1014.6
20260506100057 59 107 0.0 0.0 0.00 0.00 0.00 23 1014.7
20260506094554 57 174 0.0 0.0 0.00 0.00 0.00 27 1014.7
20260506093108 56 161 0.0 3.0 0.00 0.00 0.00 28 1014.7
20260506091551 56 194 0.0 3.0 0.00 0.00 0.00 28 1014.7
20260506090055 56 170 0.0 4.0 0.00 0.00 0.00 29 1014.6
20260506084544 56 179 0.0 3.0 0.00 0.00 0.00 30 1014.6
20260506083041 55 253 0.0 0.0 0.00 0.00 0.00 32 1014.6
20260506081536 54 204 0.0 2.0 0.00 0.00 0.00 33 1014.6
20260506073023 52 207 0.0 0.0 0.00 0.00 0.00 39 1014.6
20260506071519 51 143 0.0 2.0 0.00 0.00 0.00 42 1014.5